Terminal Aerodrome Forecast
Issued by NWS Omaha/Valley, NE

Home | Current Version | Previous Version | Graphics & Text | Print | Product List | Glossary On
Versions: 1 2 3 4 5 6 7 8 9 10 11 12 13 14 15 16 17 18 19 20 21 22 23 24 25 26 27 28 29 30 31 32 33 34 35 36 37 38 39 40 41 42 43
000
FTUS43 KOAX 261639 AAB
TAFOFK
TAF AMD
KOFK 261639Z 2617/2712 34025G32KT P6SM -SN OVC015
     FM262100 34018G25KT P6SM OVC025
     FM262300 35015KT P6SM BKN025
     FM270030 35010KT P6SM SCT030 BKN250
     FM270500 34004KT P6SM BKN040=

USA.gov is the U.S. government's official web portal to all federal, state and local government web resources and services.